STARLINK-5701 (55487 NORAD) Tracking and Keplerian Element Data

This shows tracking and keplerian element data for the satellite.

Feedback or suggestion? Click here.




ElementValue
Catalog55487
NameSTARLINK-5701
Epoch Orbit130
Epoch Day84.91667824
Epoch Year2023
RAAN86.4797
Inclination43.0003
Eccentricity9.84E-05
Argument of Perigee248.926
Mean Anonmoly137.518
Mean Motion15.04472391
Decay Rate0.00053884
L11 55487U 23015AQ 23084.91667824 .00053884 00000+0 37738-2 0 9997
L22 55487 43.0003 86.4797 0000984 248.9260 137.5180 15.04472391 1309



Live tracking and technical data element details for STARLINK-5701 (NORAD 55487). STARLINK-5701 can be tracked NOW for your location showing map with azimuth and elevation plus other details from your city location.







IsCatalogInMostPopularTable: catalog: 55487, numindb: -1

Insert: records affected: 1


GetName: 55487 STARLINK-5701

Hit Count: inserted at: Tue, 28 Mar 2023 02:39:00 GMT